FENGYUN 1C DEB

Satellite information

Favourite Embed

Satellite Type and Status

DEBRISIN ORBIT

Key statistics

Satellite FENGYUN 1C DEB at a glance.

Uptime

9617

Days in orbit

Revolutions

≈ 14.2

Per day

Orbit

SSO

Sun Synchronous Orbit

Inclination

99.2

Latest

Satellite identification and parameters

Extended collection of information and parameters for FENGYUN 1C DEB.

Object identification

Identified? True

Debris? True

Object name: FENGYUN 1C DEB

International designator: 1999-025AHR

Object number (NORAD): 30503

Object ID (CCSDS): 30503

Country: PEOPLES REPUBLIC OF CHINA (PRC)

Current information (Y/N): Y

RCS size: SMALL

Orbital parameters

Period: 101.697 minutes

Inclination: 99.2164 deg

SMA: 7217.127 km

Apoapsis: 845.282 km

Periapsis: 832.702 km

RAAN: 89.5562 deg

Eccentricy: 0.00087159

Argument of periapsis: 174.0336 deg

Mean anomaly: 6.4351 deg

Mean motion: 14.15977117 rev/day

Mean motion (dot): 0.00000673 rev/day2

B* drag term: 0.00036530814 1/REarth

Two-line elements (TLE)

Creation date: Sept. 7, 2025, 3:09 a.m.

Reference frame: TEME

Reference center: EARTH

Epoch: Sept. 6, 2025, 7:47 a.m. UTC

TLE line 0: 0 FENGYUN 1C DEB

TLE line 1: 1 30503U 99025AHR 25249.32433581 .00000673 00000-0 36531-3 0 9994

TLE line 2: 2 30503 99.2164 89.5562 0008716 174.0336 6.4351 14.15977117959673

Live tracking on map

Real-time ground track for satellite FENGYUN 1C DEB.

In-orbit conjunctions

A list of the most updated potential collisions computed for object FENGYUN 1C DEB.

Target Orbit TCA Probability of collision Miss distance Type
DELTA 1 DEB SSO 2025-08-15 07:22:54 0.00151936 57.0 (m) DEBRIS
DMSP 5D-2 F14 DEB SSO 2025-02-19 23:37:07 0.001089298 262.0 (m) DEBRIS
SL-16 R/B LEO 2024-09-01 16:42:41 0.0002342903 134.0 (m) ROCKET BODY

Associated space launch

Chinese polar orbiting meteorological satellite

FENGYUN 1C DEB was lifted into orbit during the mission ‘Long March 4B | Feng Yun 1C’, on board a Long March 4B space rocket.

The launch took place on May 10, 1999, 1:33 a.m. from Launch Complex 7.

For more information about the launch, click the button.

Launch to space Long March 4B | Feng Yun 1C
Long March 4B | Feng Yun 1C

Agency: N/A

Status: Launch Successful

Launch date: May 10, 1999, 1:33 a.m. UTC

Rocket: Long March 4B

Launch pad: Launch Complex 7

Location: Taiyuan Satellite Launch Center, People's Republic of China

...

Latest news about this satellite

There are no fresh news available about this satellite. Check back as we update our databases every day.


Newsletter sign-up

Weekly statistics, charts and insights to help you stay on top of the space industry.